Location: Aranbee
(34.0885°N, 118.2342°W)
Time: 03:52:23
(UTC+00:00)

Courier 1B - Visible Passes

Search period start: 19 May 2021 00:00
Search period end: 29 May 2021 00:00
Orbit: 962 x 1209 km, 28.3° (Epoch: 18 May)

Date Brightness Start Highest point End Pass type
(mag) Time Alt. Az. Time Alt. Az. Time Alt. Az.
19 May 8.0 09:55:49 52° SSE 09:55:49 52° SSE 10:02:37 10° E visible
19 May 8.1 11:42:42 13° W 11:49:16 52° S 11:56:46 10° ESE visible
20 May 9.1 09:05:17 27° ESE 09:05:17 27° ESE 09:08:35 10° E visible
20 May 7.9 10:52:10 33° WSW 10:55:24 55° S 11:02:51 10° ESE visible
21 May 7.8 10:01:43 56° S 10:01:43 56° S 10:08:54 10° ESE visible
21 May 8.3 11:48:36 10° W 11:55:29 43° SSW 12:02:42 10° SE visible
22 May 8.9 09:11:22 29° ESE 09:11:22 29° ESE 09:14:55 10° ESE visible
22 May 8.0 10:58:16 29° WSW 11:01:39 48° S 11:08:54 10° ESE visible
23 May 7.8 10:08:03 52° S 10:08:03 52° S 10:15:03 10° ESE visible
23 May 8.6 11:55:19 10° W 12:01:39 32° SSW 12:08:16 10° SE visible
24 May 9.0 09:18:00 26° ESE 09:18:00 26° ESE 09:21:09 10° ESE visible
24 May 8.3 11:04:56 27° WSW 11:07:52 37° SSW 11:14:41 10° SE visible
25 May 9.0 04:29:06 10° SSW 04:31:15 16° S 04:31:15 16° S visible
25 May 8.2 10:15:04 41° S 10:15:04 41° S 10:21:01 10° SE visible
25 May 9.0 12:02:28 10° WSW 12:07:44 21° SSW 12:13:12 10° SSE visible
26 May 9.1 03:36:57 10° S 03:39:46 13° SSE 03:42:01 11° SE visible
26 May 9.1 05:27:14 10° SW 05:28:59 18° SW 05:28:59 18° SW visible
26 May 9.4 09:25:26 18° SE 09:25:26 18° SE 09:27:14 10° ESE visible
26 May 8.6 11:12:23 24° SW 11:14:01 26° SSW 11:20:01 10° SSE visible
27 May 8.3 04:34:03 10° SW 04:39:24 28° SSE 04:39:37 28° SSE visible
27 May 8.9 10:22:57 25° SSE 10:22:57 25° SSE 10:26:37 10° SE visible
27 May 9.3 12:11:00 10° SW 12:13:48 12° SSW 12:16:39 10° S visible
28 May 8.6 03:41:03 10° SSW 03:45:51 22° SSE 03:50:03 12° ESE visible
28 May 8.3 05:33:08 10° WSW 05:37:01 33° SSW 05:37:01 33° SSW visible
28 May 9.1 11:20:39 16° SSW 11:20:39 16° SSW 11:24:27 10° S visible
